Powrót do katalogu

NOAA 16 DEB

AktywnySSO
NORAD 41402·DEBRIS·🇺🇸 United States

Wystrzelony Sep 21, 2000 z Vandenberg Space Force Base

Loading…

Następne Przeloty (najbliższe 24 godziny)

TLE

ŚwieżeSource: Space-Track

Epoka: Sep 14, 2026, 07:40 UTC

1 41402U 00055KF  26257.31978248  .00001842  00000-0  89499-3 0  9992
2 41402  98.6735 284.3880 0028390 354.5383   5.5479 14.19274698545013

Śledź NOAA 16 DEB w czasie rzeczywistym z AllMySat

Download on the App Store